Location: Fluertsh�userhof
(48.7537°N, 10.3850°E)
Time: 07:32:09
(UTC+00:00)

Cosmos 1805 - Pass Details

Date: 18 September 2020
Orbit: 524 x 531 km, 82.5° (Epoch: 24 October)

Event Time Altitude Azimuth Distance (km) Brightness Sun altitude
Exits shadow 19:00:26 25° 70° (ENE) 1,112 4.5 -16.3°
Drops below altitude 10° 19:03:00 10° 32° (NNE) 1,792 5.8 -16.7°
Sets 19:05:23 0° 20° (NNE) 2,689 6.9 -17.0°
